Regional Weather Roundup
Issued by NWS

Home | Current Version | Previous Version | Graphics & Text | Print | Product List | Glossary On
Versions: 1 2 3 4 5 6 7 8 9 10 11 12 13 14 15 16 17 18 19 20 21 22 23 24 25 26 27 28 29 30 31 32 33 34 35 36 37 38 39 40 41 42 43 44 45 46 47 48 49 50
000
ASUS43 KBIS 291910
RWRND

NORTH DAKOTA REGIONAL WEATHER ROUNDUP
NATIONAL WEATHER SERVICE BISMARCK ND
200 PM CDT MON AUG 29 2016

NOTE: "FAIR" INDICATES FEW OR NO CLOUDS BELOW 12,000 FEET WITH NO
SIGNIFICANT WEATHER AND/OR OBSTRUCTIONS TO VISIBILITY.


NDZ001>003-009>011-017-292000-
NORTHWEST NORTH DAKOTA

CITY           SKY/WX    TMP DP  RH WIND       PRES   REMARKS
WILLISTON      SUNNY     74  39  28 VRB6      30.29F
MINOT          SUNNY     73  46  38 VRB6      30.27F
MINOT AFB      SUNNY     71  43  36 VRB3      30.26F
$$

NDZ018>021-031>035-040>046-292000-
SOUTHWEST NORTH DAKOTA

CITY           SKY/WX    TMP DP  RH WIND       PRES   REMARKS
BISMARCK       SUNNY     77  53  43 MISG      30.26F
DICKINSON      SUNNY     77  44  30 E9        30.28F
GARRISON         N/A     75  48  38 VRB3      30.27F
HETTINGER ARPT SUNNY     79  48  33 E14       30.30F
$$

NDZ004>008-012>016-024-026-027-054-292000-
NORTHEAST NORTH DAKOTA

CITY           SKY/WX    TMP DP  RH WIND       PRES   REMARKS
GRAND FORKS    MOSUNNY   79  63  57 NW10      30.15F
GRND FRKS AFB  SUNNY     78  62  58 N9        30.17F
DEVILS LAKE    SUNNY     71  50  47 NW12      30.24F
$$

NDZ022-023-025-028>030-036>039-047>053-292000-
SOUTHEAST NORTH DAKOTA

CITY           SKY/WX    TMP DP  RH WIND       PRES   REMARKS
FARGO          CLOUDY    79  70  74 N10       30.15S
JAMESTOWN      MOSUNNY   76  61  59 NW12      30.22S
$$





USA.gov is the U.S. government's official web portal to all federal, state and local government web resources and services.